Location: Muck Cross
(36.7179°N, 78.3678°W)
Time: 05:24:44
(UTC+00:00)

Tiros 1 - All Passes

Search period start: 19 April 2024 00:00
Search period end: 29 April 2024 00:00
Orbit: 625 x 657 km, 48.4° (Epoch: 18 April)

Date Brightness Start Highest point End Pass type
(mag) Time Alt. Az. Time Alt. Az. Time Alt. Az.
19 Apr - 04:32:58 10° SSW 04:37:23 44° SE 04:41:48 10° ENE night (unlit)
19 Apr - 06:15:09 10° W 06:19:30 39° NNW 06:23:51 10° NE visible
19 Apr - 07:59:09 10° NW 08:02:30 19° N 08:05:51 10° NE visible
19 Apr - 09:42:02 10° NW 09:45:46 24° NNE 09:49:30 10° ENE visible
19 Apr - 11:23:49 10° NW 11:28:25 72° NE 11:32:59 10° ESE daylight
19 Apr - 13:06:48 10° W 13:10:04 19° SW 13:13:20 10° S daylight
20 Apr - 03:16:57 10° S 03:19:50 16° SE 03:22:44 10° E night (unlit)
20 Apr - 04:56:46 10° SW 05:01:26 84° NW 05:06:04 10° NE night (unlit)
20 Apr - 06:40:07 10° WNW 06:43:59 25° NNW 06:47:51 10° NE visible
20 Apr - 08:23:55 10° NW 08:27:14 19° N 08:30:31 10° NE visible
20 Apr - 10:06:04 10° NW 10:10:18 35° NNE 10:14:30 10° E visible
20 Apr - 11:48:02 10° WNW 11:52:30 52° SW 11:56:57 10° SE daylight
21 Apr - 03:39:21 10° SSW 03:43:39 38° SE 03:47:57 10° ENE night (unlit)
21 Apr - 05:21:14 10° W 05:25:41 43° NNW 05:30:06 10° NE visible
21 Apr - 07:05:12 10° NW 07:08:37 20° N 07:12:02 10° NE visible
21 Apr - 08:48:16 10° NW 08:51:54 22° NNE 08:55:32 10° ENE visible
21 Apr - 10:30:04 10° NW 10:34:38 63° NNE 10:39:10 10° ESE daylight
21 Apr - 12:12:47 10° W 12:16:22 23° SW 12:19:56 10° S daylight
22 Apr - 02:23:45 10° SSE 02:26:08 14° SE 02:28:31 10° E night (unlit)
22 Apr - 04:02:58 10° SW 04:07:39 85° SE 04:12:18 10° NE night (unlit)
22 Apr - 05:46:09 10° WNW 05:50:07 27° NNW 05:54:05 10° NE visible
22 Apr - 07:30:03 10° NW 07:33:20 19° N 07:36:37 10° NE visible
22 Apr - 09:12:19 10° NW 09:16:27 32° NNE 09:20:34 10° E visible
22 Apr - 10:54:12 10° WNW 10:58:44 61° SW 11:03:15 10° SE daylight
23 Apr - 02:45:44 10° SSW 02:49:54 32° SE 02:54:04 10° ENE night (unlit)
23 Apr - 04:27:19 10° WSW 04:31:51 49° NNW 04:36:21 10° NE night (unlit)
23 Apr - 06:11:13 10° WNW 06:14:44 21° N 06:18:13 10° NE visible
23 Apr - 07:54:27 10° NW 07:58:02 21° NNE 08:01:34 10° ENE visible
23 Apr - 09:36:17 10° NW 09:40:49 56° NNE 09:45:19 10° ESE visible
23 Apr - 11:18:48 10° WNW 11:22:38 26° SW 11:26:27 10° S daylight
24 Apr - 01:30:49 10° SSE 01:32:25 12° SE 01:34:01 10° ESE night (unlit)
24 Apr - 03:09:11 10° SW 03:13:51 74° SE 03:18:30 10° ENE night (unlit)
24 Apr - 04:52:09 10° W 04:56:15 29° NNW 05:00:19 10° NE visible
24 Apr - 06:36:07 10° NW 06:39:25 19° N 06:42:42 10° NE visible
24 Apr - 08:18:32 10° NW 08:22:35 29° NNE 08:26:37 10° E visible
24 Apr - 10:00:22 10° WNW 10:04:57 72° SW 10:09:31 10° SE visible
24 Apr - 11:45:17 10° WSW 11:46:21 11° SW 11:47:25 10° SW daylight
25 Apr - 01:52:09 10° SSW 01:56:09 28° SE 02:00:07 10° ENE visible
25 Apr - 03:33:24 10° WSW 03:38:00 55° NNW 03:42:34 10° NE night (unlit)
25 Apr - 05:17:13 10° WNW 05:20:49 21° NNW 05:24:23 10° NE visible
25 Apr - 07:00:36 10° NW 07:04:06 21° N 07:07:36 10° ENE visible
25 Apr - 08:42:30 10° NW 08:46:59 49° NNE 08:51:26 10° ESE visible
25 Apr - 10:24:50 10° WNW 10:28:53 31° SW 10:32:54 10° SSE daylight
26 Apr - 02:15:24 10° SW 02:20:03 64° SE 02:24:40 10° ENE visible
26 Apr - 03:58:09 10° W 04:02:21 32° NNW 04:06:32 10° NE night (unlit)
26 Apr - 05:42:10 10° NW 05:45:30 19° N 05:48:48 10° NE visible
26 Apr - 07:24:43 10° NW 07:28:42 27° NNE 07:32:39 10° ENE visible
26 Apr - 09:06:32 10° NW 09:11:09 83° SW 09:15:44 10° SE visible
26 Apr - 10:50:31 10° WSW 10:52:37 13° SW 10:54:43 10° SSW daylight
27 Apr - 00:58:36 10° S 01:02:22 24° SE 01:06:07 10° E visible
27 Apr - 02:39:29 10° WSW 02:44:09 62° NNW 02:48:47 10° NE visible
27 Apr - 04:23:11 10° WNW 04:26:53 23° NNW 04:30:34 10° NE night (unlit)
27 Apr - 06:06:44 10° NW 06:10:11 20° N 06:13:36 10° NE visible
27 Apr - 07:48:41 10° NW 07:53:07 44° NNE 07:57:30 10° E visible
27 Apr - 09:30:54 10° WNW 09:35:07 36° SW 09:39:18 10° SSE visible
28 Apr - 01:21:38 10° SW 01:26:14 55° SE 01:30:49 10° ENE visible
28 Apr - 03:04:09 10° W 03:08:27 35° NNW 03:12:44 10° NE visible
28 Apr - 04:48:11 10° NW 04:51:33 19° N 04:54:53 10° NE visible
28 Apr - 06:30:54 10° NW 06:34:47 26° NNE 06:38:39 10° ENE visible
28 Apr - 08:12:41 10° NW 08:17:19 86° NNE 08:21:55 10° SE visible
28 Apr - 09:56:10 10° W 09:58:52 15° SW 10:01:34 10° SSW visible
